Regional Weather Roundup
Issued by NWS

Home | Current Version | Previous Version | Text Only | Print | Product List | Glossary Off
Versions: 1 2 3 4 5 6 7 8 9 10 11 12 13 14 15 16 17 18 19 20 21 22 23 24 25 26 27 28 29 30 31 32 33 34 35 36 37 38 39 40 41 42 43 44 45 46 47 48 49 50

000
ASUS43 KLOT 091608
RWRIL

ILLINOIS REGIONAL WEATHER ROUNDUP
NATIONAL WEATHER SERVICE CHICAGO/ROMEOVILLE IL
1000 AM CST FRI DEC 09 2016

NOTE: "FAIR" INDICATES FEW OR NO CLOUDS BELOW 12,000 FEET WITH NO
SIGNIFICANT WEATHER AND/OR OBSTRUCTIONS TO VISIBILITY.

* THESE STATIONS ARE NOT UNDER NWS QUALITY CONTROL. THEY ALSO MAY NOT
  REPORT WEATHER SUCH AS PRECIPITATION OR FOG.

ILZ001-002-007-009-015-016-024-091700-
NORTHWEST ILLINOIS

CITY           SKY/WX    TMP DP  RH WIND       PRES   REMARKS
MOLINE         SUNNY     21  11  65 W9        30.61R WCI  11
STERLING*      FLURRIES  21  16  81 W8        30.58R WCI  11
SAVANNA*       SUNNY     22  15  75 NW6       30.58R WCI  14
$$

ILZ003-004-008-010-011-017-018-091700-
NORTH CENTRAL ILLINOIS

CITY           SKY/WX    TMP DP  RH WIND       PRES   REMARKS
ROCKFORD       FLURRIES  23  15  71 W12       30.57R WCI  12
FREEPORT*      PTSUNNY   21  14  75 W8        30.57R WCI  11
ROCHELLE*      CLOUDY    24  16  72 NW9       30.56R WCI  14
DE KALB*       CLOUDY    22  16  78 W10       30.54R WCI  11
$$

ILZ005-006-012>014-019>023-091700-
NORTHEAST ILLINOIS

CITY           SKY/WX    TMP DP  RH WIND       PRES   REMARKS
CHICAGO-OHARE  FLURRIES  24  17  74 W12       30.53R WCI  13
CHICAGO-MIDWAY FLURRIES  25  15  66 W10       30.54R WCI  15
AURORA         CLOUDY    24  18  77 W14       30.56R WCI  12
LANSING*       CLOUDY    25  19  79 W9        30.54S WCI  15
JOLIET*        CLOUDY    25  19  77 W6        30.57R WCI  18
WAUKEGAN       PTSUNNY   24  12  60 NW12G20   30.51R WCI  13
DUPAGE AIRPORT FLURRIES  23  15  71 W13       30.53R WCI  11
KANKAKEE*      CLOUDY    24  17  74 W10G18    30.57S WCI  13
WHEELING       CLOUDY    24  16  71 W9        30.54R WCI  14
MORRIS*        CLOUDY    24  18  78 W10       30.56S WCI  13
ROMEOVILLE*    CLOUDY    24  20  87 W9        30.55R WCI  14
NORTHERLY ISL    N/A     25  17  72 W13         N/A  WCI  14
$$

LMZ740>746-091700-
SOUTHERN LAKE MICHIGAN

STATION/POSITION SKY/WX   TEMP    WIND        PRES    VSBY  WAVE
                          AIR SEA DIR/SP/G                  HT/PER
                          (F)     (DEG/KT/KT) (MB)    (MI)  (FT/S)
HARRISON CRIB              25     300/ 13/ 15   N/A
BURNHAM HARBOR             25     290/  6/ 12   N/A
CALUMET HARBOR             25     270/  7/ 12 1033.3R
BURNS HARBOR               27     270/ 16/ 21 1033.5R
$$

ILZ025>027-034>036-040-047-049-050-058-095>099-091700-
WEST-CENTRAL ILLINOIS

CITY           SKY/WX    TMP DP  RH WIND       PRES   REMARKS
QUINCY         CLOUDY    19  13  77 NW5       30.63R WCI  12
GALESBURG*     PTSUNNY   20  13  75 NW12      30.61R WCI   8
MACOMB*        CLOUDY    19  12  73 NW9       30.65S WCI   9
JACKSONVILLE*  CLOUDY    22  13  67 W6        30.63R WCI  15
PITTSFIELD*    FLURRIES  20  13  74 W7        30.64R WCI  11
$$

ILZ028>032-037-038-041>044-048-051>054-059>061-091700-
CENTRAL ILLINOIS

CITY           SKY/WX    TMP DP  RH WIND       PRES   REMARKS
PONTIAC        CLOUDY    24  17  74 W9        30.59S WCI  14
BLOOMINGTON    MOSUNNY   24  14  65 NW10      30.58R WCI  14
DECATUR        LGT SNOW  22  17  81 NW10      30.61R WCI  11
PEORIA         MOSUNNY   24  13  62 W8        30.61R WCI  15
LACON*         PTSUNNY   22  14  70 W6        30.59R WCI  15
LINCOLN*       PTSUNNY   23  15  70 NW5       30.62R WCI  17
SPRINGFIELD    CLOUDY    24  14  65 NW7       30.63R WCI  16
TAYLORVILLE    LGT SNOW  22  15  74 CALM      30.62R
$$

ILZ033-039-045-046-055>057-062-063-091700-
EAST-CENTRAL ILLINOIS

CITY           SKY/WX    TMP DP  RH WIND       PRES   REMARKS
CHAMPAIGN      FLURRIES  25  13  60 W8        30.59R WCI  16
RANTOUL*       PTSUNNY   27  18  68 W9        30.57S WCI  18
MATTOON        CLOUDY    24  11  57 N8        30.59R WCI  15
PARIS*         PTSUNNY   26  16  65 W10       30.60R WCI  16
$$

ILZ079-100>102-091700-
SOUTHWEST ILLINOIS

CITY           SKY/WX    TMP DP  RH WIND       PRES   REMARKS
ALTON          MOSUNNY   23  14  68 NW6       30.64S WCI  16
BELLEVILLE     SUNNY     25  16  67 VRB3      30.64R
CAHOKIA*       SUNNY     24  12  60 VRB5      30.65S WCI  18
SPARTA*        SUNNY     23  15  69 N3        30.65S
$$

ILZ064>066-069>071-074>076-080>082-084>086-088>090-092>094-091700-
SOUTH-CENTRAL ILLINOIS

CITY           SKY/WX    TMP DP  RH WIND       PRES   REMARKS
CARBONDALE     SUNNY     24  16  71 NW6       30.67R WCI  17
CAIRO*         SUNNY     26  14  61 CALM      30.68S
EFFINGHAM*     CLOUDY    25  17  71 W6        30.63S WCI  18
MARION         SUNNY     25  16  68 CALM      30.66R
CENTRALIA*     SUNNY     26  17  71 NW8       30.63S WCI  17
SALEM*         SUNNY     26  15  63 NW8       30.63S WCI  18
METROPOLIS*    SUNNY     27  15  61 CALM      30.67R
$$

ILZ067-068-072-073-078-083-087-091-091700-
SOUTHEAST ILLINOIS

CITY           SKY/WX    TMP DP  RH WIND       PRES   REMARKS
LAWRENCEVILLE  CLOUDY    25  15  66 CALM      30.63R
FLORA*         MOSUNNY   27  14  59 NW7       30.64S WCI  19
FAIRFIELD*     MOSUNNY   25  14  63 CALM      30.63S
HARRISBURG*    MOSUNNY   27  17  66 N6        30.65S WCI  20
ROBINSON*      CLOUDY    24  15  70 W6        30.64R WCI  17
CARMI*         MOSUNNY   26  16  65 W3        30.64S
$$

ABBREVIATIONS USED IN REMARKS
   TC - TEMPERATURE IN CELSIUS
  WCI - WIND CHILL INDEX
   HX - HEAT INDEX
  VSB - VISIBILITY
$$




USA.gov is the U.S. government's official web portal to all federal, state and local government web resources and services.